Content
SEND FEEDBACK

Daily
Averages
Monthly
Summary
United States of America

ST. LOUIS - SAINT LOUIS UNIVERSITY, MISSOURI


Home > North America > United States > Missouri
Elevation: 580 feet     Latitude: 38 38N     Longitude: 090 14W

WEATHER
 
SELECT A DAY
Number of Records: 186,534;   Date Range: 1/1/95 - 9/21/14
 
SHARE

PRINT THIS DATA

[ ← Previous Day ]
WEATHER ALMANAC - MARCH 29, 2013
[ Next Day → ]
[ °C ]   °F
Weather ElementAverageHighLow
Temperature51.1 °F61 °F (3:53 pm)43 °F (10:53 pm)
Dewpoint41 °F44.1 °F (2:53 pm)37.9 °F (2:53 am)
Humidity69.6 %89 % (10:53 pm)51 % (4:53 pm)
Barometer30.22 in30.26 in (1:53 am)30.19 in (3:53 pm)
Wind Speed6.2 mph11.5 mph (3:53 am)
Weather ElementAverage
Visibility9.7 mi
Wind DirectionENE (83.9 °)

Weather ElementTotal
Precipitation---
Heating Degree Days13 (Base 65)
Growing Degree Days2 (Base 50)
Averaged from 23 records on March 29, 2013
WEATHER CONDITIONS BREAKOUT
WIND DIRECTION BREAKOUT
WEATHER BY HOUR - MARCH 29, 2013
[ °C ]   °F
Local TimeTemperatureDewpointHumidityBarometerVisibilityWind DirectionWind SpeedGust SpeedPrecipitationEventsConditions
1:53 AM46.9 °F39.0 °F74 %30.26 in10.0 miSE (140°)9.2 mph0.00 inOvercast
2:53 AM46.0 °F37.9 °F73 %30.23 in10.0 miSE (140°)9.2 mphOvercast
3:53 AM45.0 °F39.0 °F80 %30.22 in10.0 miSE (140°)11.5 mphMostly Cloudy
4:53 AM45.0 °F39.0 °F80 %30.23 in10.0 miESE (110°)3.5 mphOvercast
5:53 AM44.1 °F37.9 °F79 %30.22 in10.0 miSE (130°)6.9 mphMostly Cloudy
6:53 AM44.1 °F37.9 °F79 %30.23 in10.0 miSE (140°)8.1 mphOvercast
7:53 AM45.0 °F39.0 °F80 %30.24 in9.0 miESE (120°)5.8 mphClear
8:53 AM48.0 °F39.9 °F74 %30.25 in10.0 miSE (130°)11.5 mphClear
9:53 AM51.1 °F42.1 °F71 %30.25 in10.0 miESE (120°)6.9 mphClear
10:53 AM53.1 °F43.0 °F69 %30.25 in10.0 miEast (80°)5.8 mphClear
11:53 AM57.0 °F43.0 °F59 %30.24 in10.0 miEast (90°)5.8 mphPartly Cloudy
12:53 PM59.0 °F43.0 °F55 %30.23 in10.0 miEast (100°)3.5 mphScattered Clouds
1:53 PM60.1 °F43.0 °F53 %30.22 in10.0 miNE (50°)8.1 mphMostly Cloudy
2:53 PM60.1 °F44.1 °F55 %30.20 in10.0 miEast (90°)10.4 mphMostly Cloudy
3:53 PM61.0 °F43.0 °F52 %30.19 in10.0 miEast (80°)5.8 mphMostly Cloudy
4:53 PM60.1 °F42.1 °F51 %30.19 in10.0 miNE (40°)11.5 mphMostly Cloudy
5:53 PM57.9 °F42.1 °F56 %30.19 in10.0 miENE (60°)6.9 mphScattered Clouds
6:53 PM55.9 °F43.0 °F62 %30.20 in10.0 miEast (90°)8.1 mphScattered Clouds
7:53 PM53.1 °F42.1 °F66 %30.20 in10.0 miEast (80°)3.5 mphClear
8:53 PM51.1 °F42.1 °F71 %30.21 in10.0 miCalmClear
9:53 PM46.0 °F41.0 °F83 %30.23 in9.0 miCalmClear
10:53 PM43.0 °F39.9 °F89 %30.22 in7.0 miCalmClear
11:53 PM43.0 °F39.9 °F89 %30.22 in7.0 miCalmClear
Hourly data recorded from KCPS, located miles away from St. Louis - Saint Louis University, Missouri







STORIES FROM OUR PARTNERS